[[{"header":{"parameterUnit":"m.s-1","parameterCategory":1,"la1":30.2991,"la2":30.254,"lo1":-89.0895,"lo2":-89.0444,"dy":0.0017,"dx":0.0017,"nx":28,"ny":28,"refTime":"2025-08-13T03:00:00:Z","depth":0,"parameterNumber":2,"parameterNumberName":"U-component_of_WINDS"},"data":[0,0,0,0,0,0,0,0,0,0,0,0,0,0,0,0,0,0,0,0,0,0,0,0,0,0,0,0,0,0,0,0,0,0,0,0,0,0,0,0,0,0,0,0,0,0,0,0,0,0,0,0,0,0,0,0,0,0,3.5387,3.5388,0,3.5419,3.5419,3.542,3.5281,3.5277,3.5273,3.5269,3.5303,3.5307,3.5312,0,0,0,0,0,0,0,0,0,0,0,0,0,3.5205,3.5209,3.5387,3.5388,3.5388,3.5419,3.542,3.542,3.5282,3.5277,3.5272,3.5268,3.5301,3.5307,3.5312,0,0,0,0,0,0,0,0,0,0,0,0,0,3.5266,3.5211,3.5387,3.5323,3.5318,3.5419,3.542,3.542,3.5283,3.5277,3.5271,3.5265,3.5299,3.5306,3.5313,3.5478,0,0,3.5334,3.5337,0,0,0,0,0,0,0,0,3.5262,3.5272,3.5332,3.5328,3.5322,3.534,3.5367,3.544,3.5285,3.5296,3.5269,3.5262,3.532,3.5325,3.5344,3.5479,3.5481,3.5335,3.5339,3.5342,3.5344,0,0,0,0,0,0,0,3.5258,3.527,3.54,3.5333,3.5327,3.5292,3.5294,3.538,3.5342,3.5295,3.5285,3.529,3.5316,3.5338,3.5344,3.5481,3.5335,3.5341,3.5345,3.5348,3.5749,3.5755,0,0,0,0,0,0,3.5263,3.5268,3.5399,3.5401,3.5276,3.53,3.5302,3.534,3.5341,3.5335,3.5296,3.5284,3.5329,3.5336,3.5345,3.5535,3.5342,3.5349,3.5353,3.5743,3.5751,3.5757,0,0,0,0,0,0,3.5259,3.5276,3.5398,3.5332,3.5344,3.531,3.5354,3.5344,3.5366,3.5341,3.5333,3.5325,3.5324,3.5335,3.5445,3.5534,3.5352,3.5358,3.5735,3.5745,3.5754,3.5918,0,0,0,0,0,0,3.5255,3.5275,3.5338,3.5334,3.5348,3.5498,3.5359,3.5349,3.5378,3.5363,3.5367,3.5362,3.532,3.5435,3.5452,3.554,3.5364,3.5727,3.574,3.5751,3.5905,3.5933,3.5956,0,0,0,0,0,3.5249,3.5385,3.5342,3.5359,3.5427,3.5504,3.5512,3.5462,3.5386,3.5448,3.5432,3.5361,3.5522,3.5448,3.5465,3.5557,3.5721,3.5736,3.575,3.5893,3.5927,3.5956,0,0,0,0,0,0,3.5402,3.5383,3.5336,3.5474,3.5492,3.548,3.5557,3.55,3.5539,3.5523,3.5459,3.5461,3.5582,3.5581,3.5498,3.5715,3.5608,3.5627,3.5711,3.5743,3.5768,3.5765,3.537,0,0,0,0,0,3.5451,3.5516,3.5496,3.562,3.5631,3.5593,3.5625,3.5584,3.56,3.5606,3.5598,3.5616,3.5669,3.5706,3.5755,3.5904,3.5901,3.5976,3.6002,3.6023,3.6039,3.6115,3.6147,3.5805,3.5805,3.5805,0,0,3.5555,3.5552,3.5597,3.565,3.5659,3.5726,3.56,3.5678,3.5726,3.5618,3.572,3.5715,3.573,3.586,3.5916,3.5862,3.6133,3.6041,3.6059,3.6063,3.6133,3.6166,3.6194,3.5815,3.5813,3.5812,0,0,3.5777,3.5783,3.5885,3.5896,3.5909,3.5883,3.5908,3.5905,3.5896,3.5998,3.5917,3.5974,3.607,3.6082,3.6101,3.6326,3.6261,3.6343,3.6477,3.6552,3.6578,3.6602,3.6679,3.6708,3.636,3.6361,3.6361,0,3.5904,3.6002,3.5945,3.6027,3.6051,3.5956,3.6057,3.607,3.61,3.6119,3.6058,3.6173,3.6176,3.6306,3.636,3.638,3.6404,3.6342,3.6579,3.6602,3.6623,3.6696,3.6726,3.637,3.6369,3.6368,3.6367,0,3.6156,3.6225,3.6306,3.6335,3.6368,3.646,3.6416,3.6457,3.6413,3.6393,3.6496,3.6497,3.6542,3.657,3.6529,3.6693,3.6659,3.659,3.6481,3.6666,3.6734,3.6762,3.6384,3.6381,3.6378,3.6375,0,0,3.6476,3.647,3.6501,3.6511,3.6518,3.657,3.6657,3.67,3.6735,3.6758,3.6828,3.6909,3.6844,3.6866,3.6825,3.6891,3.7064,3.6813,3.6812,3.6857,3.7242,3.7293,3.7326,3.7022,3.7027,3.7031,3.724,0,3.6691,3.6838,3.6788,3.6937,3.6998,3.6907,3.6981,3.6993,3.6976,3.7025,3.7006,3.7064,3.6975,3.6987,3.7048,3.7031,3.7141,3.7015,3.7085,3.7088,3.7082,3.7362,3.7416,3.7613,3.7266,3.7271,3.7274,0,3.6963,3.6995,3.7149,3.7142,3.7166,3.7235,3.7268,3.7317,3.7328,3.7311,3.7334,3.7278,3.7361,3.7253,3.7365,3.728,3.7306,3.7301,3.7308,3.7311,3.7191,3.7371,3.7675,3.7704,3.7316,3.7312,3.7309,0,3.7177,3.7259,3.7361,3.7373,3.7369,3.7418,3.7419,3.7424,3.7452,3.7482,3.7499,3.7539,3.7561,3.7592,3.7548,3.7474,3.7665,3.7555,3.7652,3.7653,3.7695,3.7693,3.8006,3.7716,3.7715,3.7715,3.7714,0,3.7422,3.7519,3.7457,3.752,3.7625,3.7566,3.7672,3.7663,3.7667,3.7725,3.765,3.7706,3.7645,3.7696,3.7662,3.7758,3.7769,3.7756,3.7746,3.7762,3.7763,3.7776,3.7761,3.7722,3.7721,3.7719,3.7718,0,3.7679,3.7641,3.7746,3.7732,3.7731,3.7809,3.7797,3.7854,3.7831,3.7905,3.7919,3.7883,3.7938,3.7897,3.7953,3.7929,3.8055,3.8027,3.8051,3.8043,3.8141,3.8132,3.8472,3.8513,3.8199,3.8202,3.8204,0,3.7836,3.7909,3.7902,3.7935,3.794,3.7995,3.8022,3.7967,3.7999,3.8015,3.807,3.8118,3.8153,3.8245,3.8224,3.8265,3.8235,3.8351,3.8241,3.8254,3.8234,3.8229,3.8235,3.8373,3.8377,3.838,3.8383,0,3.8119,3.8096,3.8139,3.8175,3.8209,3.8235,3.8255,3.8286,3.823,3.8269,3.8324,3.8351,3.8406,3.8454,3.8487,3.8486,3.8425,3.8418,3.8442,3.8458,3.8469,3.8462,3.811,3.841,3.8407,3.8405,3.8404,3.8403,3.8329,3.8388,3.8391,3.8441,3.8449,3.8469,3.852,3.8503,3.8547,3.8586,3.8551,3.8616,3.8622,3.866,3.8667,3.8716,3.8668,3.8704,3.8713,3.8722,3.8735,3.8462,3.8723,3.8722,3.8721,3.872,3.872,0,3.8605,3.8602,3.8648,3.8677,3.8715,3.8654,3.8671,3.8707,3.8765,3.8776,3.8812,3.8874,3.8919,3.8901,3.8941,3.8984,3.8956,3.8996,3.8991,3.8992,3.8777,3.8751,3.9017,3.9017,3.9017,3.9017,3.9017,3.9017,3.8753,3.8848,3.8826,3.8923,3.892,3.8982,3.8997,3.9014,3.9022,3.9094,3.9131,3.9118,3.9117,3.9155,3.9194,3.9187,3.9205,3.9254,3.9237,3.9037,3.9007,3.8979,3.8954,3.9259,3.9259,3.9447,3.9449,3.945]},{"header":{"parameterUnit":"m.s-1","parameterCategory":1,"la1":30.2991,"la2":30.254,"lo1":-89.0895,"lo2":-89.0444,"dy":0.0017,"dx":0.0017,"nx":28,"ny":28,"refTime":"2025-08-13T03:00:00:Z","depth":0,"parameterNumber":3,"parameterNumberName":"V-component_of_WINDS"},"data":[0,0,0,0,0,0,0,0,0,0,0,0,0,0,0,0,0,0,0,0,0,0,0,0,0,0,0,0,0,0,0,0,0,0,0,0,0,0,0,0,0,0,0,0,0,0,0,0,0,0,0,0,0,0,0,0,0,0,4.3787,4.3788,0,4.3883,4.3884,4.3885,4.3835,4.3832,4.383,4.3827,4.3922,4.3927,4.3931,0,0,0,0,0,0,0,0,0,0,0,0,0,4.3555,4.356,4.3787,4.3788,4.379,4.3883,4.3884,4.3885,4.3835,4.3832,4.3829,4.3826,4.392,4.3926,4.3932,0,0,0,0,0,0,0,0,0,0,0,0,0,4.3654,4.3561,4.3787,4.3776,4.3776,4.3882,4.3884,4.3886,4.3836,4.3832,4.3828,4.3825,4.3918,4.3925,4.3933,4.4054,0,0,4.3955,4.3958,0,0,0,0,0,0,0,0,4.3648,4.3663,4.3776,4.3777,4.3777,4.3843,4.3837,4.3942,4.3837,4.3813,4.3827,4.3823,4.3898,4.3907,4.3933,4.4059,4.4063,4.3956,4.396,4.3963,4.3965,0,0,0,0,0,0,0,4.3642,4.3658,4.3825,4.3778,4.3778,4.3764,4.3774,4.3856,4.3876,4.3815,4.3811,4.3824,4.3898,4.3926,4.3935,4.4064,4.3955,4.3962,4.3967,4.3969,4.429,4.4294,0,0,0,0,0,0,4.3636,4.3653,4.3822,4.3828,4.3702,4.3771,4.3782,4.3826,4.3875,4.3879,4.3827,4.3821,4.3916,4.3927,4.3938,4.4082,4.3963,4.397,4.3974,4.4286,4.4291,4.4295,0,0,0,0,0,0,4.3631,4.3652,4.3818,4.3739,4.3759,4.378,4.3828,4.383,4.3858,4.3884,4.3887,4.3853,4.3913,4.3928,4.4025,4.4084,4.3973,4.398,4.4281,4.4287,4.4293,4.4371,0,0,0,0,0,0,4.3625,4.365,4.3699,4.3741,4.3764,4.3905,4.3832,4.3834,4.3871,4.3865,4.3909,4.3913,4.3911,4.4015,4.4033,4.4092,4.3986,4.4276,4.4284,4.4291,4.4363,4.4379,4.4392,0,0,0,0,0,4.3617,4.3717,4.3701,4.3722,4.3825,4.3909,4.3922,4.3919,4.3876,4.3924,4.3939,4.3911,4.4075,4.4025,4.4045,4.4108,4.4272,4.4281,4.429,4.4356,4.4376,4.4392,0,0,0,0,0,0,4.3681,4.3722,4.3706,4.3823,4.3863,4.39,4.396,4.394,4.3993,4.3984,4.3977,4.3988,4.4088,4.4108,4.4051,4.4226,4.4166,4.418,4.421,4.4228,4.4243,4.4235,4.3992,0,0,0,0,0,4.3708,4.3775,4.3807,4.3907,4.3928,4.3941,4.3977,4.3971,4.4012,4.4029,4.4052,4.4091,4.4151,4.4191,4.4248,4.4365,4.4372,4.4418,4.4432,4.4444,4.4456,4.4516,4.4536,4.4326,4.4326,4.4325,0,0,4.3766,4.3797,4.3839,4.392,4.3951,4.4017,4.3955,4.4029,4.4078,4.404,4.4132,4.4151,4.4194,4.4301,4.4349,4.432,4.4515,4.4456,4.4466,4.4471,4.4528,4.4547,4.4565,4.4332,4.4331,4.433,0,0,4.3905,4.3937,4.4022,4.4053,4.41,4.4107,4.4127,4.4168,4.4178,4.4271,4.4243,4.43,4.4404,4.4435,4.4464,4.4611,4.4586,4.463,4.4706,4.4765,4.4781,4.4796,4.4846,4.4864,4.4641,4.4642,4.4642,0,4.3971,4.4072,4.4068,4.4143,4.4178,4.4146,4.4231,4.4261,4.4323,4.4347,4.4314,4.4442,4.4469,4.4581,4.4617,4.4642,4.4663,4.4625,4.478,4.4794,4.4808,4.4855,4.4874,4.4647,4.4646,4.4645,4.4645,0,4.4149,4.4219,4.4282,4.4343,4.4385,4.4465,4.447,4.4512,4.4502,4.4512,4.4605,4.4636,4.4697,4.4723,4.4715,4.4834,4.4814,4.478,4.472,4.4833,4.4877,4.4895,4.4653,4.4652,4.465,4.4649,0,0,4.4333,4.4388,4.4411,4.4437,4.4485,4.4538,4.4614,4.4674,4.4709,4.4753,4.4815,4.4902,4.4871,4.4904,4.4898,4.4949,4.506,4.4909,4.491,4.4934,4.519,4.5213,4.5235,4.5044,4.5047,4.505,4.5185,0,4.4473,4.4609,4.4605,4.473,4.4793,4.4762,4.4828,4.4863,4.4874,4.4926,4.4937,4.4999,4.4954,4.4973,4.5023,4.5036,4.5111,4.5027,4.5099,4.5102,4.5088,4.5258,4.5285,4.5411,4.5203,4.5206,4.5208,0,4.4656,4.4705,4.4836,4.4871,4.4898,4.4958,4.501,4.5062,4.51,4.5103,4.5139,4.5124,4.5198,4.5136,4.5237,4.518,4.5209,4.522,4.5224,4.523,4.5161,4.5267,4.5451,4.5469,4.5236,4.5233,4.5231,0,4.4774,4.4873,4.4963,4.4986,4.503,4.5072,4.5092,4.5126,4.5161,4.5207,4.5229,4.5282,4.5311,4.5352,4.535,4.5306,4.5451,4.539,4.5454,4.5454,4.5486,4.5484,4.5676,4.5507,4.5507,4.5507,4.5506,0,4.4931,4.5012,4.5016,4.5072,4.516,4.5154,4.5241,4.5256,4.5286,4.5342,4.5318,4.5371,4.5366,4.5418,4.5417,4.5499,4.5513,4.5516,4.5515,4.5518,4.5517,4.5536,4.5527,4.5512,4.5511,4.551,4.5509,0,4.5078,4.5084,4.518,4.5213,4.5223,4.5287,4.5314,4.5365,4.5372,4.5443,4.5459,4.5471,4.5531,4.5533,4.5602,4.5601,4.57,4.569,4.5688,4.5685,4.5748,4.5742,4.5958,4.5985,4.5801,4.5803,4.5804,0,4.5177,4.5238,4.5277,4.5313,4.5336,4.5394,4.5429,4.5425,4.5462,4.5507,4.5552,4.561,4.5656,4.5753,4.5766,4.5817,4.5807,4.5879,4.5814,4.5814,4.5805,4.5801,4.5806,4.5891,4.5893,4.5895,4.5897,0,4.5351,4.5351,4.5403,4.5456,4.5499,4.554,4.5578,4.5608,4.5607,4.565,4.5711,4.5747,4.5816,4.5873,4.5922,4.594,4.5918,4.5917,4.5934,4.5937,4.5932,4.5933,4.572,4.5912,4.591,4.5909,4.5908,4.5908,4.5476,4.5528,4.5562,4.562,4.5648,4.5684,4.5733,4.5746,4.5797,4.5853,4.5847,4.5914,4.5946,4.601,4.6032,4.6083,4.6058,4.6083,4.609,4.6096,4.6101,4.5925,4.6092,4.6092,4.6091,4.6091,4.6091,0,4.5647,4.5667,4.5721,4.5774,4.5819,4.5794,4.5834,4.5873,4.5933,4.5965,4.601,4.6078,4.6132,4.6149,4.62,4.6238,4.6228,4.6251,4.6248,4.6251,4.6122,4.6101,4.6258,4.6258,4.6258,4.6257,4.6257,4.6257,4.5742,4.5827,4.583,4.5927,4.5946,4.6012,4.6037,4.6068,4.6093,4.6171,4.6216,4.6226,4.6251,4.6304,4.6351,4.6354,4.6373,4.64,4.6399,4.6278,4.6261,4.6245,4.6225,4.6405,4.6405,4.6524,4.6525,4.6526]}]]